Theta_e
313 312 314 314 313 312 312 312 312 313 313 313 312 313 312 312 311 312 311 310 310 309 310 310 309 309 308 310 309 308 307 307 306 306 307 306 306 307 305 306 306 305 307 306 304 302 303 303 302 303 303 303 302 301 301 301 301 301 301 300 300 301 300 299 297 297 300 301 301 299 300 301 299 300 299 300 301 302 303 303 304 303 303 303 303
311 311 312 313 312 312 312 312 312 312 312 312 312 313 313 312 311 311 310 310 311 310 310 311 311 310 310 309 309 309 308 308 307 306 307 306 306 307 306 306 306 306 306 306 305 304 303 303 303 303 302 302 301 300 300 300 299 299 299 299 299 299 301 299 298 297 295 300 299 299 299 301 298 299 299 299 300 301 300 301 302 302 301 302 302
311 311 311 311 311 312 312 312 313 313 312 311 311 311 311 311 313 311 311 311 311 311 311 311 312 312 311 311 310 310 309 309 308 307 307 307 307 307 308 306 307 307 306 306 305 304 303 304 304 304 303 302 301 301 300 300 299 298 298 298 298 299 299 299 298 295 295 297 298 297 298 299 299 298 299 299 300 300 299 300 300 301 301 302 301
311 311 311 310 311 312 312 312 312 312 312 311 312 312 312 312 313 314 313 313 313 313 313 313 312 312 313 313 312 312 312 310 310 309 309 307 307 307 307 307 307 307 307 306 306 304 304 303 303 304 304 302 301 300 300 300 299 298 298 297 298 298 299 299 299 299 298 297 297 296 298 298 298 298 298 299 298 298 299 299 300 300 300 300 300
311 311 311 311 311 311 310 311 311 311 311 311 312 312 312 313 314 315 315 314 315 314 315 314 314 314 314 314 314 313 313 312 311 310 310 310 309 308 307 307 307 307 308 307 308 306 305 305 304 304 303 302 301 300 299 298 297 298 296 296 297 298 298 298 297 297 297 297 297 297 297 298 298 298 298 297 297 298 298 298 299 299 299 300 300
313 312 311 310 310 310 309 309 309 309 310 310 311 311 312 313 313 313 314 313 313 313 313 313 315 315 314 314 314 314 314 313 312 312 312 311 310 309 308 308 308 307 307 307 307 307 307 306 305 304 303 304 302 301 300 299 297 297 296 296 296 297 297 297 296 297 297 296 297 297 297 296 297 297 297 297 297 297 297 298 298 298 298 298 299
311 312 311 311 310 310 309 309 310 310 310 310 310 310 311 311 312 312 312 313 312 312 312 312 312 313 313 313 314 314 315 315 314 313 313 312 311 310 309 308 308 308 307 307 308 307 307 307 306 305 305 305 304 303 302 300 299 297 297 297 296 297 296 296 296 296 296 297 296 295 296 296 296 296 297 297 297 296 295 295 296 297 297 296 296
309 310 310 309 310 310 310 309 310 310 309 310 311 312 312 311 311 310 311 311 310 311 312 312 312 312 312 312 313 313 313 313 313 314 314 313 312 310 309 308 308 308 308 308 308 308 308 308 307 306 306 306 306 304 303 301 300 299 298 298 297 297 296 296 296 295 296 295 295 295 294 295 295 295 296 296 295 295 295 294 293 294 295 296 296
308 308 308 308 308 308 309 310 309 310 310 309 309 310 311 311 310 310 310 310 311 311 312 312 311 311 311 311 311 312 312 312 313 313 312 313 312 311 311 309 309 309 309 308 308 308 308 308 307 307 308 309 306 305 304 302 300 298 298 299 298 297 296 296 295 295 294 295 295 294 294 294 293 293 294 294 293 293 294 294 293 294 294 293 294
307 306 307 307 306 308 308 308 309 308 309 309 309 309 310 310 310 310 310 311 311 311 310 310 311 310 310 311 310 310 311 312 311 306 306 312 312 312 312 311 310 309 309 309 308 307 308 308 309 310 309 308 304 300 298 298 301 301 298 299 299 297 296 296 296 296 297 296 295 295 294 293 293 293 293 294 294 294 293 292 291 292 292 292 293
305 305 306 305 304 305 306 308 308 308 308 308 307 308 309 309 309 308 309 309 309 310 310 309 309 309 310 309 309 310 310 311 306 301 299 300 307 310 310 310 310 310 309 308 308 308 308 308 308 309 309 307 304 296 295 296 296 296 296 297 298 299 296 295 295 295 297 295 294 294 294 293 293 293 293 293 293 292 291 291 291 291 289 288 287
299 298 299 298 299 303 305 306 306 305 308 309 308 308 308 308 309 308 308 309 309 308 308 309 308 308 308 307 307 308 309 303 295 294 295 295 299 308 309 310 310 309 309 309 308 308 307 307 307 308 308 307 302 299 296 293 293 293 292 292 291 292 294 298 297 294 293 294 293 294 293 293 293 293 293 293 292 292 291 290 290 289 288 288 288
294 295 296 297 297 297 300 301 300 300 300 300 302 305 307 307 307 307 307 307 305 305 307 306 307 306 306 307 308 307 306 297 293 293 293 293 293 298 307 308 308 308 307 307 307 307 307 306 306 306 308 307 303 299 298 297 294 294 294 294 294 292 290 290 293 298 295 295 295 293 292 293 293 293 294 293 294 290 290 289 289 289 289 288 288
294 294 295 295 295 295 297 298 298 297 297 297 298 300 301 300 299 300 301 300 301 301 301 303 303 303 303 304 305 301 299 295 292 292 293 293 292 294 305 306 305 303 303 304 305 305 305 305 304 304 304 303 301 300 298 298 298 297 297 296 296 295 293 291 291 292 294 296 295 294 293 294 292 293 295 294 291 290 289 288 289 288 288 288 290
295 295 295 295 294 294 295 295 296 296 296 296 296 297 297 297 298 296 296 296 297 296 297 298 300 300 300 299 297 295 293 292 291 292 292 293 292 295 300 299 298 297 297 298 299 301 302 302 302 301 301 301 302 300 300 299 297 296 294 294 294 294 294 294 294 295 295 294 294 294 294 294 294 293 293 292 292 291 291 290 290 290 290 290 290
295 295 295 295 295 295 295 295 295 294 295 295 296 296 295 295 296 296 295 293 292 293 294 295 296 296 293 293 294 295 292 291 291 292 293 293 294 298 297 297 297 296 296 297 298 298 298 299 297 296 297 297 296 295 296 298 296 294 293 292 292 292 292 293 292 293 294 293 293 293 293 292 291 293 293 292 292 291 291 292 291 289 288 287 287
294 294 295 296 296 295 296 297 296 295 294 296 296 296 297 295 294 294 294 292 293 292 291 291 291 291 293 291 291 292 291 292 291 292 292 292 295 297 297 296 295 294 294 295 297 297 296 295 295 295 295 295 292 291 292 294 295 293 292 291 291 291 290 291 291 290 290 290 290 290 290 289 290 290 290 290 291 292 291 289 288 289 287 286 287
297 297 296 296 296 295 296 297 297 296 296 297 297 295 293 292 292 293 295 293 293 291 290 289 288 290 289 289 289 291 292 292 292 292 292 293 295 297 296 294 293 292 292 293 295 297 299 298 296 295 294 294 290 290 291 294 294 293 292 291 290 289 290 289 289 290 289 289 289 289 289 289 289 289 290 290 290 291 290 288 289 288 287 287 285
299 299 298 297 296 296 295 295 296 295 296 295 295 295 294 295 293 291 291 292 291 290 291 289 288 288 289 291 296 289 288 292 292 292 292 293 295 296 295 294 292 291 291 291 291 292 293 295 296 295 295 293 289 290 290 293 292 291 290 289 289 288 289 287 288 289 289 290 290 290 290 290 290 290 291 289 289 291 291 290 290 288 287 287 286
301 301 299 298 298 298 297 299 298 299 297 295 296 296 294 292 291 291 289 290 289 288 289 287 287 286 286 286 288 288 289 290 292 291 292 293 293 295 295 294 292 290 291 291 291 290 291 292 292 289 289 288 288 288 289 290 291 290 290 289 288 288 288 288 291 290 289 288 288 288 288 288 288 288 289 289 290 291 291 291 290 289 288 287 287
299 298 296 296 296 297 297 298 299 298 299 300 298 296 293 292 290 291 290 288 288 287 287 286 286 285 285 286 287 289 292 289 291 291 292 292 292 293 294 294 292 292 291 290 290 290 290 291 291 289 288 288 288 288 288 288 289 290 289 289 289 289 288 289 289 289 288 289 289 288 288 288 288 288 288 289 290 291 291 291 291 290 289 288 287
293 292 293 294 295 295 296 294 296 298 295 296 296 293 290 290 290 290 289 289 288 287 287 287 285 286 285 286 288 286 291 293 290 291 291 291 291 292 294 294 293 291 290 289 289 290 290 290 290 289 288 288 288 288 289 289 289 291 289 287 287 287 290 290 289 289 288 288 287 287 287 287 287 287 288 289 289 290 290 290 290 290 290 290 289
291 293 293 293 294 295 295 295 296 297 296 295 295 293 290 290 289 290 289 288 287 286 286 286 286 286 286 286 285 286 286 291 291 291 290 290 290 291 291 292 290 294 292 290 290 290 291 290 291 290 288 288 288 288 288 287 289 289 288 287 288 288 289 289 288 287 287 287 287 286 286 286 286 286 287 287 288 289 289 289 290 290 290 291 291
291 291 293 293 293 294 295 296 296 297 296 294 293 292 290 289 289 290 289 290 288 287 285 285 285 286 286 287 287 286 287 287 290 290 290 289 290 290 290 290 290 292 292 290 290 290 290 291 291 288 288 288 288 288 287 288 288 287 288 287 287 287 288 287 287 286 286 286 286 285 285 286 286 286 286 287 287 288 288 288 289 289 289 289 289
292 292 293 293 293 293 293 294 294 294 294 294 294 292 290 290 291 288 289 288 289 289 286 287 288 287 286 286 286 286 286 287 289 290 289 289 289 289 289 289 289 289 290 291 291 291 289 288 288 288 288 288 288 288 288 287 287 287 287 287 288 287 287 286 286 286 285 285 285 285 285 285 286 286 287 287 287 288 287 288 288 288 288 289 289
292 293 293 293 294 293 293 292 291 292 292 292 295 294 294 291 292 289 288 289 289 289 287 287 287 286 287 286 285 286 286 287 288 289 291 290 289 289 289 289 290 290 290 289 288 288 288 288 288 288 288 288 289 288 288 288 287 287 287 287 286 286 286 286 286 285 285 284 284 284 284 285 285 286 286 287 286 286 286 286 286 286 287 287 286
293 293 293 293 293 293 295 295 293 292 291 291 291 293 291 292 291 290 289 289 288 288 287 287 287 286 286 285 285 286 286 287 288 288 288 289 290 290 290 290 290 289 290 290 289 289 288 288 288 287 287 287 286 286 286 286 286 286 286 286 286 286 286 286 286 285 284 284 284 284 284 285 286 286 285 285 285 286 287 286 285 285 286 286 286
291 291 292 291 292 292 293 291 292 292 291 291 291 289 289 291 292 290 290 290 289 288 288 287 288 287 287 286 285 286 286 286 287 288 288 289 289 289 289 289 288 288 288 288 288 289 288 287 286 286 286 286 286 286 285 285 284 284 285 285 285 285 285 285 285 285 285 285 284 285 285 285 285 285 285 285 285 286 287 286 286 285 286 286 284
289 289 289 289 291 291 292 293 293 293 292 291 289 289 290 290 292 291 289 290 293 293 290 290 290 290 289 287 286 285 285 286 287 288 288 288 288 287 287 287 287 287 288 287 287 286 286 286 285 284 284 282 281 283 284 283 283 283 283 284 285 284 285 285 284 285 285 285 284 284 284 285 285 285 285 285 285 286 287 286 286 286 286 286 284
289 289 288 287 288 288 289 290 289 289 290 290 290 287 284 287 287 289 289 290 290 290 290 291 291 290 289 289 289 288 287 288 288 288 288 288 288 287 287 287 287 287 287 286 287 284 282 282 281 282 281 281 280 280 279 280 280 281 282 282 282 283 284 284 284 285 285 285 285 285 285 285 285 285 285 285 285 286 286 286 285 286 285 284 284
290 290 289 288 288 289 288 288 288 288 287 288 288 289 287 286 287 287 288 288 288 288 289 289 290 289 291 290 289 289 288 288 288 288 288 288 287 287 287 287 287 287 286 286 285 283 282 282 279 278 278 280 280 280 278 279 279 279 281 281 282 282 281 283 284 285 285 285 285 285 285 285 285 285 284 285 285 285 286 286 286 286 285 284 284
289 290 290 289 289 288 288 288 287 287 286 285 286 287 287 288 288 287 287 287 287 288 288 288 289 289 289 290 289 288 287 288 288 288 288 288 287 287 287 287 286 286 285 286 283 281 281 281 279 278 277 279 279 278 278 279 279 280 280 281 282 282 282 283 285 286 285 285 285 285 285 285 285 285 285 285 285 285 285 285 285 285 285 285 284
288 289 289 288 287 287 286 285 287 287 287 286 285 286 287 287 289 289 287 286 287 287 287 288 288 289 289 289 289 288 288 288 288 288 288 287 287 286 286 286 286 286 286 285 283 279 279 280 281 280 279 280 280 279 280 281 281 281 282 281 282 283 284 284 284 285 285 285 285 285 285 285 285 285 285 285 285 284 284 284 285 285 284 284 284
287 287 288 287 286 285 285 286 286 286 286 286 286 286 286 286 287 287 287 286 286 286 286 287 288 288 289 289 289 288 288 288 288 288 287 287 287 286 286 286 286 286 286 283 283 281 281 282 283 283 283 281 280 279 279 281 281 281 282 282 283 284 284 285 285 285 285 286 285 285 285 285 285 284 284 284 285 285 284 284 284 284 284 284 283
286 284 283 284 285 285 285 285 285 285 285 286 285 285 286 285 285 285 286 286 286 285 282 284 286 288 288 288 288 288 288 288 288 288 287 287 286 286 287 287 285 284 284 284 284 284 282 282 282 283 283 282 280 279 280 283 282 282 282 282 283 283 284 284 284 285 285 285 285 285 285 285 285 285 284 284 284 284 284 284 284 284 284 284 284
285 284 285 284 284 285 284 284 284 285 285 285 285 285 285 284 284 285 285 285 284 283 283 283 284 287 287 287 287 288 288 287 287 287 287 287 287 287 285 283 283 282 283 284 284 283 283 283 283 283 283 283 281 280 281 281 282 282 283 282 282 282 283 283 284 285 285 285 285 285 285 285 285 285 285 284 284 284 284 284 284 284 284 284 284
286 284 283 284 285 284 283 283 283 283 282 282 283 284 284 284 284 284 284 284 284 284 284 285 286 286 286 287 287 287 287 287 287 287 287 286 286 285 285 285 284 284 283 283 283 283 283 282 283 283 283 283 282 283 281 282 282 283 282 283 283 282 283 284 285 285 284 284 285 285 285 285 285 285 284 283 284 284 284 284 284 284 284 284 284
285 285 285 285 285 285 284 283 283 282 283 283 284 284 284 284 284 284 285 284 284 284 284 285 286 285 284 285 288 287 286 286 286 286 285 285 283 283 283 283 284 284 283 283 283 283 283 282 282 284 283 283 283 283 282 281 282 282 281 282 282 283 284 284 284 284 284 284 284 285 285 285 285 285 285 284 283 284 284 284 284 284 284 284 284
285 284 283 283 284 285 284 284 283 284 284 284 284 283 283 283 284 285 285 285 285 285 285 285 285 285 285 285 285 287 287 285 285 283 282 281 281 282 283 283 283 282 282 282 282 282 283 283 282 280 282 282 281 282 281 281 281 281 281 282 282 283 283 284 284 284 284 284 284 285 285 285 285 285 285 284 284 284 284 284 284 284 284 284 284
284 285 284 284 285 285 285 284 284 284 284 284 284 284 284 284 284 285 285 286 285 285 285 285 284 284 285 285 285 285 285 284 283 283 283 282 282 282 283 283 282 282 281 281 281 283 283 283 282 281 280 280 281 282 281 281 281 281 281 282 282 282 282 283 283 283 283 283 284 284 284 284 284 285 284 284 284 285 284 284 284 285 284 284 284
285 286 285 285 286 287 286 286 285 285 285 285 286 286 285 285 286 286 286 285 285 285 285 285 284 284 285 285 285 285 285 283 283 283 283 282 282 282 281 281 281 281 281 281 281 282 282 281 278 276 275 276 278 279 280 280 280 281 282 282 282 281 281 281 282 282 283 283 283 283 283 284 284 284 283 284 285 285 285 285 285 285 285 285 285
287 287 287 287 287 288 287 286 286 286 287 287 288 287 286 286 286 286 285 285 285 285 285 285 284 284 284 285 285 285 285 284 284 283 282 282 282 281 281 281 282 281 281 281 282 280 278 278 278 277 277 278 278 280 280 280 281 281 281 281 280 280 280 280 280 281 282 282 282 282 282 283 283 283 284 285 285 285 285 285 285 285 285 285 285
289 289 289 288 289 288 288 287 288 288 288 288 286 286 287 287 286 286 285 285 285 285 285 284 284 284 284 284 285 284 285 284 283 283 282 281 281 281 281 281 281 281 281 280 279 279 279 278 278 278 278 278 278 279 279 280 280 280 280 280 279 279 279 279 280 280 280 280 280 281 281 282 283 283 284 284 285 285 285 285 285 285 285 285 285
290 290 289 289 288 288 287 288 287 287 286 286 285 286 286 286 286 286 286 285 285 285 285 284 284 284 284 284 284 284 283 283 282 282 282 281 281 280 280 280 281 280 279 278 277 277 277 277 277 278 278 278 279 278 279 280 281 280 279 279 278 278 278 278 278 278 278 278 279 279 280 281 282 283 284 284 285 285 285 285 285 285 285 285 285
291 290 289 289 289 288 287 287 287 286 286 286 286 286 286 286 286 285 285 285 284 284 284 284 284 284 284 283 283 283 282 282 281 281 281 280 280 279 280 280 279 279 280 279 279 278 277 277 277 278 279 279 279 280 281 280 280 280 279 278 277 277 277 277 278 278 278 278 278 278 280 280 281 282 283 284 285 285 285 285 285 285 285 285 285
290 289 288 288 288 287 287 287 286 287 286 286 285 285 285 285 285 285 285 284 284 284 283 283 283 282 282 282 282 282 282 281 281 281 280 280 280 280 280 281 280 280 280 279 279 279 278 278 278 278 279 280 281 281 281 280 279 279 279 278 278 278 278 278 278 278 278 278 278 278 279 280 281 282 283 284 285 285 285 285 285 285 285 285 285
289 288 287 287 287 287 286 286 286 286 286 285 285 284 284 284 284 284 284 284 283 283 282 282 282 281 281 281 281 281 281 281 281 280 280 280 281 281 282 282 282 282 282 280 279 279 278 279 279 279 279 280 281 280 280 280 279 278 279 278 278 278 278 278 278 278 278 278 278 278 278 279 280 282 283 284 285 285 285 285 285 285 285 285 285
288 288 287 287 287 286 286 286 285 285 285 284 284 284 284 283 283 283 283 283 282 282 282 282 282 281 281 281 281 280 280 280 281 280 281 281 282 283 283 283 283 282 281 280 279 279 278 279 279 279 279 279 280 280 280 279 279 278 278 278 279 278 278 278 278 278 278 278 278 278 278 279 281 283 284 284 284 284 284 284 285 285 285 285 285
287 287 286 286 286 286 285 285 285 284 284 284 283 283 283 282 282 282 282 282 282 282 281 281 281 281 281 281 281 281 281 281 281 281 282 283 283 283 283 283 282 282 281 280 279 278 278 278 278 278 278 278 279 280 280 279 278 278 278 278 278 278 278 278 278 278 278 278 278 278 278 280 282 283 284 285 285 285 285 285 285 285 285 285 285
286 286 286 285 285 285 285 284 284 284 283 283 283 282 282 282 281 281 281 281 281 281 281 281 281 281 281 281 281 281 281 281 281 282 282 283 283 283 283 282 282 281 280 279 278 278 278 278 278 278 278 278 279 279 280 279 278 278 278 278 278 278 278 277 277 277 277 278 277 278 279 280 283 284 285 285 285 285 285 285 285 285 285 285 285
286 285 285 285 285 284 284 283 283 283 283 283 282 282 281 281 281 281 281 281 281 280 280 281 281 281 281 281 281 281 281 281 281 282 282 282 282 283 282 282 281 281 280 279 279 278 278 279 279 278 278 279 279 279 279 279 278 278 278 278 278 278 277 277 277 277 277 277 278 278 280 281 282 283 284 285 285 285 285 285 285 285 285 285 285
Wind_Speed
3 3 5 5 6 6 6 5 4 4 4 2 1 1 2 3 3 2 3 2 2 1 1 3 2 1 1 0 1 1 1 1 1 3 3 3 2 3 4 4 5 3 3 3 2 4 5 6 5 4 4 6 5 5 5 5 5 6 5 6 6 3 5 5 5 3 1 1 2 3 4 3 6 7 6 5 6 6 7 6 6 7 7 6 6
4 3 3 3 4 4 3 3 4 4 5 3 1 2 2 3 3 3 3 3 4 3 3 2 2 1 1 1 1 1 1 1 2 2 4 3 3 3 4 5 4 4 3 4 4 3 5 6 4 4 2 6 5 5 5 5 5 6 4 5 5 4 2 4 3 3 3 1 3 2 3 3 4 6 6 6 6 5 7 6 5 7 6 6 6
3 3 3 4 5 6 6 6 5 5 6 4 3 3 3 3 4 4 2 3 3 4 5 4 3 2 1 1 1 1 2 2 1 1 3 3 4 4 4 5 5 6 6 6 5 4 4 4 5 4 4 6 4 4 4 5 4 5 4 3 5 4 3 2 4 4 4 1 1 2 3 3 4 5 6 4 4 3 5 6 5 5 5 6 6
4 4 4 5 5 6 6 5 5 6 6 5 4 1 1 2 4 5 5 5 5 4 4 4 5 3 2 1 0 0 1 1 1 2 3 3 5 4 4 5 5 5 6 6 6 6 6 5 5 5 4 6 5 4 3 4 4 4 4 3 4 4 3 4 4 4 2 4 3 3 3 3 3 3 4 3 4 4 5 4 2 4 5 5 6
5 5 6 7 5 6 5 5 5 4 5 5 5 5 5 5 4 5 6 6 4 5 5 2 3 3 2 2 2 3 4 3 2 2 3 3 4 3 5 5 6 6 6 6 5 7 6 7 6 6 5 6 5 5 4 5 4 5 5 3 3 3 3 3 3 3 4 4 2 1 2 2 2 1 4 5 4 2 3 4 2 3 4 4 4
5 6 6 7 5 6 5 5 6 5 5 5 4 4 4 4 4 2 3 3 3 3 4 4 5 5 5 5 5 5 5 5 4 4 4 3 3 4 4 6 6 6 6 6 6 6 7 7 6 7 7 7 7 6 5 6 5 6 6 5 4 4 5 3 3 3 5 4 3 3 2 3 3 2 5 5 6 6 5 3 0 2 5 5 4
4 6 6 7 7 7 7 7 7 7 7 6 5 4 3 3 3 4 4 5 5 5 4 4 3 4 3 3 3 4 5 4 3 3 3 3 4 4 5 7 7 6 6 6 6 6 6 6 6 7 8 7 7 7 6 5 5 6 6 6 5 5 5 4 3 4 4 3 2 2 1 1 2 4 3 4 4 4 7 9 5 1 3 6 8
4 5 6 6 6 6 6 6 6 6 5 5 5 6 5 2 1 2 3 4 3 3 3 3 3 2 1 2 3 2 2 2 3 4 3 3 5 5 5 6 8 8 6 6 6 7 8 7 7 8 8 8 7 6 7 7 5 6 4 5 5 5 5 3 3 3 3 2 2 1 1 1 2 0 2 2 3 1 4 3 7 10 9 5 4
4 4 4 5 5 5 5 3 5 6 5 3 3 4 4 4 4 3 3 4 4 4 4 4 2 2 2 2 2 2 2 4 3 2 3 5 5 6 5 6 7 7 6 6 6 6 7 7 8 8 7 6 10 9 8 8 7 6 5 5 5 6 5 3 3 3 2 2 1 0 1 2 1 3 4 3 5 4 4 3 4 5 7 8 6
5 4 4 4 4 5 4 3 4 5 5 5 3 4 5 6 6 4 3 3 4 4 3 1 1 2 2 2 2 3 3 2 2 3 5 4 2 3 5 7 6 6 6 5 5 5 7 7 7 8 11 11 10 11 11 10 7 6 7 6 5 5 4 4 2 2 2 2 2 2 4 4 2 2 2 1 2 3 3 3 6 6 5 6 5
3 3 3 3 3 3 4 5 5 5 5 5 4 4 5 5 5 3 1 1 2 1 0 2 2 2 3 3 4 4 3 3 3 6 8 3 4 6 6 5 5 5 5 5 6 5 5 4 3 3 4 3 5 8 8 7 6 7 8 5 4 5 5 4 2 2 2 0 0 1 1 4 3 0 2 2 1 3 4 4 5 6 6 8 10
3 1 1 2 3 4 4 4 4 3 3 1 0 1 2 3 2 2 2 3 3 3 3 2 3 2 2 2 3 3 0 1 3 6 6 6 6 5 5 5 4 4 4 5 5 4 4 4 4 4 4 5 6 6 7 10 11 12 11 10 10 10 5 4 4 2 3 2 2 2 2 2 2 2 1 2 4 3 3 4 4 5 7 6 5
4 4 3 3 3 3 3 4 4 3 2 2 2 2 3 2 2 1 2 2 2 1 3 3 4 4 3 4 5 4 3 2 4 5 2 2 3 3 4 4 4 4 3 4 4 4 4 3 3 3 4 10 8 7 7 9 11 14 12 12 11 10 9 9 6 3 4 3 2 2 3 1 1 1 1 2 1 5 5 4 4 4 4 5 6
5 4 4 4 3 4 4 5 6 5 5 5 5 5 5 4 3 1 1 1 1 2 3 3 3 3 2 2 2 2 3 3 5 6 3 3 0 2 1 1 0 1 1 3 4 4 4 4 4 4 4 6 6 7 7 8 7 7 6 5 5 7 8 8 8 7 4 3 3 1 1 2 1 1 2 1 3 5 4 5 4 5 5 6 7
6 5 5 4 4 4 4 4 4 4 4 5 5 6 6 5 5 4 4 4 5 5 3 2 0 1 1 1 2 0 2 6 7 7 6 3 2 2 3 4 4 4 4 4 3 0 3 3 5 6 5 6 4 7 8 8 7 6 6 5 4 4 4 4 4 3 3 3 2 2 2 2 2 2 3 2 4 5 4 6 6 6 7 6 6
5 5 5 4 4 3 4 4 3 3 4 4 5 4 4 3 4 3 4 5 5 5 5 4 3 3 3 3 2 2 4 8 8 6 3 4 5 4 4 5 5 5 6 6 5 5 5 6 7 7 7 6 7 11 9 7 7 7 6 5 4 3 3 2 3 3 3 2 2 1 1 1 2 3 4 3 3 3 4 4 4 4 4 5 6
7 5 4 4 4 4 4 5 4 3 4 5 5 5 5 4 4 2 6 5 5 5 4 4 2 3 2 1 2 0 3 6 6 4 4 6 5 4 5 6 6 7 6 6 6 6 5 6 7 7 8 7 7 11 10 9 8 7 7 5 4 4 3 2 3 2 2 1 0 1 3 3 4 4 6 6 5 4 3 3 4 3 5 8 7
5 5 6 4 2 2 3 5 5 4 4 5 5 4 3 3 4 3 7 6 5 4 4 5 4 3 3 2 1 1 1 4 4 4 5 4 5 6 5 6 6 6 6 7 6 6 6 8 7 7 8 6 8 11 10 9 8 6 6 5 3 4 3 2 1 0 0 1 3 2 1 1 1 3 4 5 5 2 1 4 5 3 6 7 9
3 6 6 4 3 2 0 3 4 4 4 3 4 4 4 4 4 4 5 6 5 4 3 5 4 4 3 2 3 3 3 4 4 3 5 6 6 5 6 6 6 5 5 6 6 6 6 6 8 7 7 6 9 9 9 8 6 5 4 5 4 4 1 1 2 3 5 6 5 6 6 7 5 4 5 8 7 5 2 3 3 3 6 8 8
4 7 8 5 3 3 2 3 4 5 4 4 3 5 5 5 5 5 4 5 6 5 4 5 5 3 3 4 3 3 4 3 3 4 6 7 6 6 5 7 6 5 4 5 6 6 6 6 7 9 9 9 9 9 8 8 8 5 4 4 4 3 1 1 1 1 2 1 3 2 3 4 4 4 4 5 5 5 4 3 3 3 4 6 8
4 4 3 3 4 4 3 4 5 4 5 7 5 5 5 6 5 5 6 5 5 5 5 4 5 4 3 3 3 3 2 3 3 3 7 8 9 7 4 4 5 6 5 4 5 6 5 4 4 6 9 9 9 9 9 8 7 6 5 4 2 2 2 3 3 3 3 3 3 3 3 4 4 4 4 4 4 4 4 5 4 4 4 5 9
4 4 4 5 5 5 5 4 3 5 3 4 5 4 2 3 5 6 5 5 6 5 4 4 5 4 3 3 2 3 3 4 3 3 4 7 9 9 6 6 6 7 7 4 3 2 3 3 4 4 8 8 8 8 8 8 7 5 5 5 4 4 3 2 2 2 3 2 3 3 3 3 4 4 4 4 5 5 5 5 5 5 5 5 7
4 5 5 5 5 6 5 5 5 4 5 5 6 6 5 5 4 5 6 5 5 5 4 4 4 3 2 2 3 3 3 2 3 4 5 7 7 7 9 9 7 5 8 6 6 6 4 4 3 5 6 7 7 8 8 9 6 6 7 7 6 6 4 3 3 3 2 2 3 3 3 4 4 5 5 5 5 5 6 6 6 6 7 7 7
4 5 5 5 5 5 5 5 5 5 7 6 5 7 6 4 5 5 6 6 6 5 4 4 4 4 4 2 1 2 3 3 3 4 6 8 8 9 9 9 8 5 6 7 6 6 5 4 3 5 7 8 9 9 9 8 7 8 8 8 7 6 4 3 3 2 2 3 3 4 4 4 5 6 6 7 7 7 7 6 6 7 8 9 10
3 6 7 6 6 6 5 5 6 5 5 7 6 6 5 5 5 3 5 5 6 6 5 5 5 5 5 5 4 2 2 3 4 4 6 9 10 10 10 10 9 10 7 5 6 5 5 8 9 9 10 10 11 10 8 8 9 9 9 8 6 4 4 3 3 3 4 3 4 6 6 6 6 8 8 8 8 8 7 8 8 9 9 9 8
4 6 7 6 7 5 5 5 4 5 5 5 6 8 8 7 6 6 5 6 6 6 6 6 5 5 6 5 5 4 3 4 4 4 4 5 6 9 11 11 10 10 10 8 8 9 10 11 12 11 9 7 7 6 5 5 8 8 8 6 4 3 3 3 4 4 5 6 6 7 7 8 8 9 9 8 8 9 9 9 9 9 10 10 11
5 4 4 5 3 4 7 7 6 5 5 5 4 5 5 6 6 6 6 6 5 4 5 6 5 5 5 5 5 4 4 4 5 5 5 6 5 6 8 8 10 10 8 7 7 6 7 7 7 8 8 10 9 5 5 5 6 5 5 3 3 3 3 3 3 4 5 6 7 7 8 8 9 9 9 9 9 9 9 9 9 9 10 10 11
5 5 4 3 3 2 4 4 5 6 6 6 6 4 4 6 7 7 8 7 6 6 6 6 6 7 7 5 5 4 5 5 5 7 6 6 6 6 6 6 6 6 7 6 6 6 7 6 7 5 5 6 6 5 5 5 3 3 4 3 3 2 2 3 2 1 2 3 6 7 8 8 9 10 10 10 10 10 10 10 10 11 11 10 10
6 6 5 3 5 3 4 5 5 6 6 5 4 2 5 7 7 6 3 3 6 8 8 7 7 7 6 7 7 6 4 6 8 5 7 7 9 8 6 6 6 5 6 9 8 6 6 6 4 5 5 4 4 3 4 4 3 3 4 4 3 2 2 2 3 3 3 4 8 8 9 9 9 8 9 10 10 10 7 7 9 9 9 8 9
7 8 7 6 6 5 5 6 6 6 6 6 5 1 3 1 2 3 3 1 3 2 5 7 6 6 6 7 7 8 10 9 9 12 11 10 8 9 9 9 8 9 9 9 7 6 4 4 4 4 4 3 3 3 2 2 2 3 3 3 3 3 3 3 3 4 4 4 6 7 7 7 9 8 9 9 10 9 9 7 9 9 9 9 10
7 8 7 7 7 7 6 6 6 6 6 5 4 5 2 1 3 3 1 3 3 4 5 6 5 8 8 6 6 4 3 9 15 13 13 11 11 11 12 12 13 13 11 8 4 4 5 5 3 4 3 2 2 1 1 1 2 2 3 3 3 3 3 4 4 3 4 5 5 5 5 7 8 8 8 9 10 10 9 7 7 8 8 10 11
7 8 7 7 7 6 6 5 4 5 5 4 5 5 5 5 4 2 3 3 2 5 7 8 8 9 11 8 6 3 7 12 14 14 13 13 12 12 13 13 13 11 7 8 6 4 4 5 3 3 2 2 0 0 0 1 2 2 2 3 4 3 3 4 4 5 5 6 6 7 8 8 8 8 9 9 9 9 9 9 8 8 8 8 9
7 8 8 8 6 5 4 5 5 5 6 5 4 4 5 6 6 6 3 4 5 4 2 6 8 10 11 10 12 11 9 12 15 15 15 14 13 12 12 11 10 8 8 5 5 4 3 4 3 2 2 2 0 0 1 1 1 2 2 2 3 4 4 5 5 5 4 5 6 7 7 8 8 9 8 8 8 9 9 9 8 7 8 10 10
8 7 7 6 6 5 5 5 5 5 5 5 5 5 5 5 6 5 5 6 4 4 6 7 3 9 9 11 11 9 12 14 14 14 15 15 15 14 12 8 8 4 5 6 5 5 3 3 2 3 2 1 0 0 1 1 1 2 3 3 3 4 5 5 4 4 5 5 6 7 6 7 7 8 8 8 8 8 9 9 9 9 9 9 10
7 7 7 5 5 7 5 4 4 4 4 4 4 5 5 5 5 5 6 6 5 4 2 4 5 2 4 6 9 12 13 15 16 16 16 15 14 14 13 9 6 3 4 4 6 6 5 4 3 2 3 1 1 0 0 2 2 2 2 4 4 4 4 4 4 5 5 5 6 6 6 8 8 8 8 8 8 9 9 9 9 9 10 9 9
6 6 2 2 4 4 5 4 4 4 4 4 4 5 5 5 5 5 5 4 4 4 3 2 2 4 8 7 9 11 13 14 14 15 15 14 14 13 7 5 5 4 4 4 5 5 4 4 4 3 2 2 0 0 0 1 2 2 2 3 4 4 4 5 5 5 5 5 6 7 8 8 7 7 7 8 9 9 9 9 10 9 8 9 9
6 2 1 2 3 3 1 3 3 3 2 3 3 4 4 4 4 4 4 5 4 4 5 4 5 6 7 6 9 11 13 14 14 14 12 11 8 4 4 6 5 4 5 3 4 5 3 2 3 3 2 1 0 0 1 2 2 3 3 3 3 4 4 5 6 6 6 6 6 6 8 8 8 7 7 8 8 9 9 9 9 9 9 10 10
5 4 4 2 2 2 3 3 3 4 3 4 3 4 4 4 5 5 5 5 5 5 5 4 3 6 7 6 5 6 10 13 15 11 8 6 3 4 4 5 5 6 5 3 3 4 3 2 2 2 1 1 0 0 1 2 2 2 2 4 4 4 6 5 6 6 6 6 6 7 8 9 8 8 7 8 9 9 9 8 9 9 9 9 8
4 4 5 3 3 4 4 4 4 4 4 3 4 4 4 4 5 5 5 4 5 5 4 5 5 5 4 5 6 8 10 6 6 5 4 3 3 3 4 4 4 4 4 4 3 4 3 3 2 1 0 0 0 0 1 1 2 2 3 3 4 5 6 5 6 6 6 6 7 8 8 8 9 8 8 8 8 8 9 9 9 9 9 9 8
3 3 5 7 4 4 5 4 4 4 4 5 4 4 5 5 5 5 5 6 6 5 5 5 5 5 4 5 7 5 6 5 5 4 4 4 4 3 3 4 4 5 5 4 3 3 3 2 1 1 1 0 0 0 0 1 1 2 2 3 5 5 6 6 6 6 6 7 7 8 8 8 8 9 9 8 9 8 9 9 9 8 8 8 8
4 4 5 5 5 5 4 5 5 5 4 5 5 5 5 5 5 5 5 6 6 6 6 6 6 4 4 6 6 6 6 5 5 4 4 5 4 3 3 3 4 4 4 4 3 3 3 2 1 1 1 0 0 1 1 1 2 2 3 4 4 5 6 6 6 6 7 7 7 7 8 8 9 9 10 9 9 9 8 8 8 7 7 8 8
5 5 5 4 5 5 5 5 4 4 5 5 6 6 6 6 6 6 6 6 6 7 7 6 5 3 4 7 7 9 7 5 5 6 4 3 4 4 3 3 3 3 4 3 3 3 2 2 1 1 0 1 1 1 1 2 2 4 4 5 5 6 6 7 6 7 7 7 7 8 8 8 9 9 10 10 9 9 8 8 8 8 8 8 7
6 6 5 5 5 5 5 5 4 5 5 6 5 4 6 6 5 5 5 6 6 6 7 6 5 5 5 6 7 8 6 5 5 5 4 4 4 4 4 3 3 2 2 2 1 2 2 2 1 1 0 1 1 0 1 1 2 4 4 5 5 5 6 6 6 6 6 7 8 9 10 9 9 8 9 9 9 9 8 9 9 7 7 7 7
6 6 5 4 4 4 3 4 4 4 5 5 5 4 4 5 5 5 6 6 5 5 6 6 5 5 4 4 6 6 5 5 4 4 5 5 5 4 4 3 3 3 3 2 2 2 2 2 1 1 0 0 1 1 1 1 3 4 4 4 4 5 5 6 6 7 8 8 9 9 8 8 9 9 9 9 10 10 10 10 9 8 8 8 7
6 6 6 5 4 4 4 3 4 5 5 4 4 4 5 5 5 5 5 6 6 6 6 5 5 5 5 4 5 6 6 6 5 5 4 5 5 4 3 3 3 4 3 3 2 2 2 2 2 2 3 2 2 2 4 4 4 3 3 4 4 5 5 6 7 7 8 9 9 9 8 8 8 8 9 9 10 10 10 9 8 8 8 8 8
6 6 5 5 5 4 4 4 4 5 5 5 5 5 4 5 5 5 6 6 6 6 6 5 5 6 5 5 6 7 6 6 5 5 5 4 4 3 3 3 3 4 3 2 2 2 2 2 3 3 3 4 4 4 4 4 4 3 4 3 4 4 5 6 7 8 8 8 8 9 9 8 8 8 10 10 9 9 10 10 9 8 8 8 8
6 5 5 5 6 5 4 4 5 5 5 5 5 6 5 5 5 6 6 6 6 6 5 5 5 6 6 7 7 6 6 5 5 5 5 4 3 3 3 3 4 3 3 3 3 3 4 4 4 4 4 4 4 5 4 4 4 4 4 4 4 5 6 7 8 8 9 9 8 9 9 8 8 8 9 10 9 9 9 9 9 9 8 7 7
6 5 5 5 6 6 5 5 6 6 6 5 6 6 6 5 5 6 7 7 7 7 6 6 7 6 6 6 6 6 6 6 6 5 4 4 3 3 3 3 3 3 3 3 4 5 4 4 4 4 4 4 5 4 4 4 4 5 4 5 5 7 10 12 9 9 8 8 9 9 9 8 7 8 8 9 9 9 9 8 9 8 8 7 6
6 6 6 6 6 5 5 5 6 6 6 6 6 6 6 5 6 5 5 7 7 7 6 6 6 6 6 6 6 6 6 6 6 5 5 4 4 3 2 3 4 4 3 4 4 4 4 4 4 3 3 3 4 4 4 5 5 5 6 6 8 13 13 13 10 8 11 10 8 8 8 7 8 8 9 9 9 8 8 8 8 8 8 7 6
6 6 6 6 6 6 5 6 6 5 5 5 5 5 6 6 5 5 6 6 6 6 6 6 6 6 6 6 6 6 6 6 5 5 4 3 2 2 2 3 4 4 4 4 4 3 3 4 4 4 4 4 4 4 4 4 5 6 7 9 14 14 14 16 13 12 11 8 9 8 7 7 8 8 8 8 8 8 8 8 9 8 8 7 7
7 7 6 6 6 6 6 5 5 5 5 5 4 4 6 5 5 5 6 6 7 6 6 6 6 6 6 6 6 6 5 5 4 3 3 3 3 3 3 3 4 4 4 3 3 3 3 4 4 4 4 4 4 4 4 5 6 8 11 14 14 15 16 15 12 14 16 12 8 7 6 7 8 8 8 8 7 8 9 9 8 8 8 7 7
Wind_Direction
136 156 157 166 157 162 156 148 133 113 104 100 161 216 176 162 162 143 115 99 97 75 44 37 37 50 96 114 149 131 131 163 167 162 157 148 134 139 140 134 128 139 132 101 60 117 123 126 131 133 131 102 111 105 92 93 84 80 85 90 86 82 101 102 104 92 5 269 357 9 353 351 43 25 29 21 13 14 22 22 23 27 26 18 13
160 169 183 130 125 110 113 117 127 120 106 92 112 167 174 156 147 118 124 132 125 119 101 90 81 73 51 24 12 324 166 197 200 168 185 175 185 162 170 160 156 165 155 163 162 149 138 132 138 124 86 118 129 117 123 115 107 93 84 101 100 91 191 120 112 119 74 276 9 3 4 353 63 24 25 10 10 8 20 18 25 28 22 11 10
151 148 137 121 137 150 149 153 155 143 125 136 154 180 170 154 153 134 123 99 99 114 119 123 123 114 84 64 27 7 9 29 59 358 306 267 213 197 188 186 180 174 183 192 184 150 139 145 164 144 131 110 108 119 121 116 107 105 110 86 96 82 42 89 121 101 73 50 226 33 20 3 49 25 17 16 3 360 18 14 16 22 17 7 6
145 124 108 114 130 142 161 167 164 157 153 132 137 107 84 151 149 138 143 137 138 140 142 153 154 157 154 157 148 166 209 175 183 171 186 227 290 273 223 203 201 199 198 193 181 177 173 158 184 169 150 132 147 138 128 116 114 105 99 62 81 79 33 30 48 128 124 56 6 44 10 19 18 23 8 12 14 13 24 357 3 30 11 6 358
134 128 125 123 125 132 140 147 151 148 126 127 136 135 148 157 164 154 153 165 174 163 176 157 135 146 169 192 215 240 231 201 197 204 192 183 193 232 260 248 224 212 206 201 192 188 184 188 181 174 165 147 167 163 155 143 132 118 115 106 99 92 54 38 31 70 112 85 32 9 349 9 355 3 12 359 357 27 14 3 349 21 8 4 342
135 131 128 118 111 107 111 110 109 106 111 112 114 121 140 147 136 99 121 130 119 118 136 143 173 200 187 183 199 221 233 219 207 220 233 223 206 204 217 254 254 231 218 212 204 201 197 200 185 172 174 174 184 180 170 149 138 131 124 128 127 116 102 79 69 58 80 102 94 48 358 14 352 3 8 1 349 353 360 14 346 13 360 352 3
111 111 113 121 122 118 112 119 126 123 115 115 111 112 116 117 118 142 157 141 139 155 167 164 194 195 209 184 211 220 238 261 270 246 259 285 274 243 224 222 241 241 227 213 204 210 215 214 199 190 192 192 177 178 158 145 150 148 148 145 146 132 122 123 124 92 80 91 94 93 45 105 23 352 3 3 346 41 1 338 343 73 30 356 336
112 111 120 126 133 127 128 144 138 120 132 144 144 142 132 105 134 148 117 116 133 145 158 191 216 177 169 211 253 291 308 307 309 311 335 282 253 246 239 234 236 242 235 219 206 209 210 206 215 210 203 191 181 170 162 164 157 140 154 147 160 135 122 126 95 87 77 61 43 84 46 349 359 5 305 345 10 59 31 357 330 334 337 348 335
124 121 118 132 144 133 155 145 92 125 138 123 119 140 155 156 155 141 138 140 157 184 193 197 198 205 202 206 258 290 286 286 306 346 322 273 255 262 247 237 236 241 238 227 217 220 223 215 214 215 208 212 185 174 183 167 157 154 172 168 156 130 116 105 115 104 102 85 8 293 73 32 16 347 353 14 15 345 334 349 310 312 314 318 324
118 116 128 146 156 146 149 121 121 119 128 142 169 161 165 173 172 180 202 191 202 198 207 191 182 221 237 249 247 258 267 266 220 197 218 223 241 268 243 234 233 237 248 251 237 222 229 226 230 225 210 208 198 182 172 178 172 156 163 164 143 115 118 123 119 119 94 53 359 339 357 358 357 360 345 322 315 320 327 338 324 317 308 291 273
114 140 174 180 167 145 139 145 145 146 172 157 162 158 146 156 157 166 187 183 203 194 53 340 301 256 251 258 261 250 261 279 256 250 258 246 203 223 229 240 228 238 237 242 248 234 229 233 266 272 246 224 164 159 160 154 122 120 115 95 94 132 140 114 140 141 140 141 116 333 324 314 316 306 308 318 335 335 328 326 316 324 339 347 330
105 91 152 144 166 165 153 143 125 107 100 78 47 34 54 66 58 47 15 326 330 12 351 294 284 281 296 290 277 275 233 328 296 295 303 290 256 249 236 235 235 228 235 235 242 237 225 208 222 213 193 164 131 124 107 100 96 87 80 75 71 63 72 134 145 133 149 146 196 233 207 242 279 349 335 347 326 320 313 314 314 324 323 321 309
99 82 52 67 79 97 110 101 96 96 92 89 94 88 90 76 68 82 265 306 28 4 314 339 321 334 343 317 311 329 349 15 317 293 282 304 288 266 261 280 290 297 292 272 255 243 232 216 183 161 155 134 130 136 125 102 93 94 90 82 69 72 74 68 63 109 149 134 184 219 208 174 321 279 228 293 282 300 312 313 316 312 303 295 295
62 57 54 59 71 92 106 114 119 132 131 120 111 108 108 122 139 134 86 53 56 35 22 1 339 331 310 271 289 339 294 302 310 307 351 62 339 227 204 109 21 34 317 265 243 222 204 186 151 125 114 128 130 124 107 103 106 98 88 81 86 74 70 76 83 79 86 128 147 171 205 153 263 232 278 309 294 292 300 296 301 296 291 285 299
52 47 46 20 25 35 50 64 79 69 69 80 88 95 108 113 102 92 99 101 104 118 130 150 96 11 18 95 141 301 287 346 339 342 2 30 103 131 72 80 78 54 29 22 12 48 138 117 100 96 91 91 109 125 116 116 109 103 96 89 83 75 77 71 58 83 82 86 120 149 155 187 240 264 267 267 251 259 265 274 283 283 285 288 272
63 64 62 54 60 53 68 70 67 66 64 67 88 94 87 96 107 75 76 66 63 74 56 43 35 37 19 36 51 357 327 346 347 359 42 116 101 74 73 69 65 53 37 15 26 43 65 88 95 90 86 85 104 114 118 119 109 108 103 103 95 81 69 40 51 70 86 128 143 157 174 218 237 253 263 267 265 259 268 268 278 269 286 296 299
13 14 58 75 87 101 109 97 91 95 104 104 112 128 130 116 102 96 94 88 97 93 105 98 83 95 81 76 114 326 313 335 353 40 99 115 88 81 78 71 56 55 38 22 32 46 55 85 102 107 98 90 108 110 114 111 100 101 105 109 105 99 80 38 43 84 94 102 281 351 301 296 281 273 275 271 263 276 264 278 285 309 315 310 306
356 2 346 350 12 78 111 122 123 128 124 132 143 141 119 108 126 155 131 128 108 123 124 99 75 77 106 126 224 157 309 338 14 75 99 102 115 110 97 88 69 61 49 32 30 39 64 87 99 96 101 101 114 107 110 105 104 114 124 124 105 83 69 13 8 170 191 106 116 356 260 265 296 301 293 302 307 278 235 298 307 318 305 305 303
40 343 327 306 303 312 86 113 122 122 124 147 140 132 134 127 114 104 115 117 124 143 121 105 77 42 25 48 55 67 3 1 22 86 109 117 113 116 110 103 94 68 77 59 32 41 37 44 70 85 94 110 105 103 104 105 109 117 113 97 96 91 72 57 41 7 2 2 352 4 349 350 350 339 325 320 310 305 258 266 283 274 298 306 305
194 210 220 224 220 216 206 146 135 130 136 148 148 139 140 126 131 112 96 110 122 112 104 102 98 57 21 39 49 51 53 5 17 101 122 121 123 127 134 126 122 115 100 102 88 53 58 62 61 74 79 73 64 65 71 88 100 100 100 96 103 92 159 47 80 63 348 15 296 320 302 310 318 320 315 315 314 311 303 281 262 264 277 293 301
243 236 242 240 224 227 219 184 164 179 165 157 155 146 149 139 133 121 119 103 97 84 80 86 85 60 34 25 62 42 58 59 8 83 129 127 127 124 90 84 115 117 110 102 105 121 111 87 76 74 84 83 82 79 83 89 98 99 95 109 108 116 114 7 29 30 7 350 341 335 323 324 315 312 307 308 305 306 301 294 284 259 264 277 297
264 254 232 227 230 219 212 223 206 172 166 135 135 138 118 124 140 136 131 124 109 103 106 99 100 79 36 29 43 30 21 66 72 56 114 137 139 135 121 135 144 122 110 100 91 60 69 96 89 92 97 99 99 96 86 81 76 78 72 75 70 59 47 48 16 9 357 353 334 320 310 306 311 310 307 306 303 298 293 289 286 280 257 252 268
243 220 214 218 220 221 220 200 190 175 170 174 150 161 164 141 135 131 129 117 113 121 121 122 113 102 76 33 12 23 17 35 91 100 95 114 115 120 131 137 150 136 137 141 150 137 114 100 104 92 83 83 79 78 76 70 65 60 62 63 63 66 63 48 31 18 355 330 317 305 304 305 307 306 302 299 295 290 289 287 285 279 274 270 271
245 248 224 211 210 214 216 216 208 189 178 169 158 149 164 159 147 152 148 141 140 134 151 142 131 147 155 150 72 29 27 53 44 90 108 102 104 110 115 122 130 121 119 131 132 125 125 128 99 87 84 83 80 76 73 73 79 75 75 73 67 57 51 37 24 6 331 324 321 313 307 301 300 305 308 309 304 297 297 294 288 285 283 291 288
245 242 240 222 205 211 207 205 202 202 190 165 155 160 151 159 150 166 146 146 150 156 177 176 177 182 174 179 184 138 51 64 75 59 91 108 110 111 111 112 116 112 97 102 107 110 106 100 96 94 94 91 89 85 79 78 76 70 64 60 57 48 44 27 11 352 347 333 317 312 308 313 314 308 310 308 297 299 302 309 303 296 293 282 267
261 249 245 224 214 192 190 209 209 202 191 195 181 174 170 177 175 170 178 175 172 166 172 181 187 182 195 192 184 177 135 110 103 95 77 86 96 105 112 114 110 105 109 107 106 100 99 99 99 98 94 95 87 75 79 73 69 65 59 54 47 44 27 20 358 357 332 328 323 319 319 318 318 317 312 310 313 316 317 314 315 313 313 312 311
270 260 265 286 277 203 187 195 205 203 196 201 196 183 175 166 160 162 179 174 173 170 164 180 185 193 200 200 186 169 157 153 139 119 120 113 108 105 100 97 105 102 96 100 96 93 87 92 99 99 94 86 85 83 74 57 54 38 28 34 36 21 21 6 349 330 335 332 326 320 319 318 317 318 323 322 318 318 322 318 315 312 311 311 309
277 279 265 241 225 240 249 231 201 198 208 191 194 197 196 177 169 173 178 181 172 196 186 189 195 196 204 181 173 168 184 186 182 169 160 140 130 120 114 122 119 125 108 102 103 102 102 95 83 54 65 57 54 39 37 45 53 33 17 18 8 360 340 327 312 301 287 290 314 323 323 324 325 325 321 321 320 320 322 316 312 308 305 303 299
282 278 280 287 271 243 228 215 210 207 212 220 227 198 194 191 199 216 240 188 190 183 191 204 207 205 183 171 170 192 189 208 214 171 158 156 148 138 138 135 132 116 127 128 109 88 91 85 79 64 55 66 48 45 24 24 9 10 8 348 349 336 325 330 332 315 300 314 333 330 328 325 322 316 319 321 318 309 295 292 294 290 293 287 282
285 272 263 250 252 243 239 239 233 229 221 215 213 236 41 111 196 202 243 218 200 204 175 198 202 183 181 208 187 178 197 210 148 152 156 157 147 138 134 133 134 131 134 123 111 100 88 93 84 91 79 70 62 40 17 360 347 348 340 331 329 328 322 311 299 291 303 302 312 320 316 313 313 314 310 306 302 298 295 285 291 290 289 289 290
278 270 268 256 242 234 231 234 230 219 218 209 200 198 216 345 45 49 214 260 252 247 230 227 192 180 184 201 229 246 122 138 157 157 155 150 142 134 132 131 131 134 135 118 75 103 115 106 97 84 81 82 80 48 348 350 325 322 321 320 314 308 299 299 294 304 311 313 314 312 309 311 308 305 304 303 301 300 299 290 283 286 284 288 291
271 266 260 255 254 249 241 239 219 196 201 177 175 179 185 216 282 310 32 45 269 242 241 234 225 206 204 199 170 178 161 162 157 154 150 144 140 136 134 134 138 139 134 105 99 100 113 120 117 118 113 91 129 326 293 284 304 313 312 328 319 306 303 305 308 313 317 319 323 321 314 309 304 306 306 303 298 296 297 301 297 293 290 286 283
270 266 260 259 253 242 221 201 206 193 181 172 180 176 181 197 219 257 306 360 39 44 329 249 234 220 207 198 186 176 172 166 159 150 145 141 135 129 122 120 127 131 109 89 117 120 116 123 137 149 139 137 146 232 275 289 306 313 310 301 303 306 304 298 297 303 310 314 314 312 312 311 309 306 299 295 299 301 303 299 295 289 288 290 289
275 266 263 252 239 224 217 202 192 193 179 174 176 180 201 200 213 218 248 281 323 359 19 7 283 218 209 195 185 164 153 151 147 142 139 138 131 125 114 107 101 100 122 133 125 135 135 134 141 155 156 141 180 187 286 316 319 312 313 302 301 298 299 303 312 322 324 322 321 316 311 308 304 301 300 301 301 301 300 299 296 296 294 291 291
289 275 267 247 223 224 198 179 184 169 163 176 183 193 206 208 202 202 207 221 230 240 303 343 358 135 164 171 163 153 152 149 146 143 137 132 128 123 113 107 104 86 71 82 116 126 141 151 152 154 152 158 203 180 272 306 325 324 317 306 301 304 311 325 328 328 321 317 318 315 311 306 303 301 302 304 305 303 300 298 295 292 291 291 290
272 253 237 291 283 241 178 177 170 170 185 206 201 202 199 185 192 203 201 194 169 145 84 25 30 47 93 106 126 134 133 131 131 130 131 130 135 128 113 114 113 124 123 123 126 128 129 141 144 149 165 189 185 198 244 297 313 307 302 302 310 321 322 323 326 322 319 318 314 307 306 302 302 304 302 299 297 297 295 294 293 290 287 287 286
269 256 184 197 182 257 105 112 131 158 166 168 166 176 181 187 177 163 160 155 146 139 125 136 108 78 65 76 103 110 114 117 119 122 125 133 126 95 121 142 144 132 136 133 131 127 126 138 139 150 167 164 182 251 303 319 309 305 305 321 320 321 320 322 321 325 326 321 308 301 306 303 304 304 303 299 298 297 296 293 292 288 285 284 286
244 215 230 166 102 135 113 116 124 127 130 143 156 161 168 169 165 163 153 149 146 140 139 126 119 124 124 118 111 116 114 107 99 89 91 90 82 103 120 138 143 147 144 137 136 131 132 144 148 144 152 122 126 284 320 313 310 309 327 325 321 317 316 313 318 322 313 306 304 305 309 309 307 306 304 300 299 299 296 291 292 292 289 285 283
234 187 191 163 146 154 147 127 126 119 121 122 142 143 149 145 144 140 138 133 130 125 120 119 115 111 110 123 121 130 116 116 120 125 112 101 94 116 128 127 129 124 121 129 130 128 138 150 159 119 120 103 236 280 310 309 312 335 335 323 326 330 333 328 322 321 318 311 308 309 308 308 310 310 308 302 295 294 294 293 291 289 290 293 290
183 145 147 148 143 149 137 135 129 126 135 127 123 122 120 131 139 140 135 128 122 116 115 111 109 110 125 126 129 128 116 121 121 128 114 102 109 109 127 133 130 131 133 130 132 138 141 142 128 112 108 194 247 325 322 318 342 335 324 334 337 330 325 323 320 319 315 312 309 309 308 309 310 310 306 302 300 295 296 297 298 294 292 290 287
158 141 135 146 145 127 112 113 126 137 133 119 120 107 106 108 107 112 115 117 115 110 104 99 96 100 112 124 120 121 124 125 119 107 112 116 115 112 112 109 122 118 122 130 139 138 139 132 122 136 208 228 280 340 343 350 350 345 342 336 330 324 319 318 316 314 314 312 310 309 308 309 310 311 308 303 302 301 296 294 292 290 293 293 290
143 133 121 125 126 123 120 123 135 133 123 114 103 100 97 91 90 94 100 103 102 102 97 87 80 70 80 110 119 119 110 107 113 109 98 99 99 94 91 88 86 110 132 143 143 137 124 107 142 185 180 10 18 358 360 13 357 345 337 333 332 328 322 318 316 316 317 313 309 307 306 307 305 304 301 302 305 304 303 301 302 302 302 300 298
138 127 127 124 119 125 126 128 118 102 92 85 78 87 101 103 104 109 106 103 102 100 98 95 85 75 75 76 95 92 93 97 104 103 101 99 95 90 88 87 90 95 99 104 118 129 129 133 149 180 155 37 321 322 3 344 334 332 331 331 330 325 316 313 319 322 321 316 309 304 302 304 305 308 308 307 304 306 305 307 308 304 302 301 299
121 113 110 106 102 87 70 90 86 82 78 77 74 69 85 107 109 105 103 100 100 99 104 108 114 105 97 80 83 84 85 91 93 97 102 95 92 90 92 93 91 85 82 79 76 101 107 127 126 129 121 336 10 18 39 13 357 346 337 336 332 327 318 318 323 326 323 316 308 304 300 303 307 306 308 307 310 310 313 310 309 309 311 310 305
110 110 102 90 78 82 72 68 91 91 91 87 82 84 84 85 91 97 100 100 95 90 85 91 98 104 103 93 91 97 99 100 100 96 89 91 91 90 94 92 91 91 86 76 81 101 102 95 91 69 47 30 21 36 28 16 9 360 359 344 336 324 322 323 322 318 312 308 304 302 302 307 309 307 306 308 310 312 311 312 310 309 310 313 314
101 102 104 103 94 84 81 72 75 82 85 90 90 72 64 91 95 83 82 79 74 80 89 85 85 89 89 90 91 92 96 97 90 85 86 84 86 89 91 87 89 89 85 89 77 68 66 67 56 53 42 33 31 18 14 12 10 8 5 356 330 318 317 317 317 314 310 307 304 302 302 304 302 301 303 307 311 312 311 310 310 312 312 312 312
97 98 97 93 95 92 86 87 86 86 85 84 84 90 85 71 78 88 86 90 95 93 84 91 88 88 90 94 97 95 95 85 89 86 88 90 90 84 77 75 91 93 87 75 60 58 50 48 44 46 45 36 24 19 14 11 8 4 360 346 336 327 328 326 320 313 308 305 302 300 299 299 299 302 306 309 313 315 316 313 314 313 314 315 313
92 89 86 88 88 84 76 76 81 84 85 83 85 86 86 86 83 84 94 93 92 97 99 93 91 90 91 89 90 93 92 93 92 89 86 81 77 69 62 61 72 86 87 71 59 55 49 46 46 44 41 34 24 18 17 9 2 355 347 341 335 336 328 327 319 315 309 307 301 297 294 293 294 299 304 310 315 320 319 316 317 319 320 318 315
93 91 88 83 84 85 82 80 78 82 86 90 85 77 76 74 78 79 87 94 92 90 95 95 93 92 91 90 92 93 93 93 96 99 102 101 93 81 75 82 69 58 59 61 60 56 50 44 38 38 33 26 18 9 14 8 356 349 342 337 333 331 329 329 325 316 316 311 303 299 291 285 291 299 309 314 316 317 315 314 318 321 320 319 318
78 79 83 84 85 84 84 86 85 79 77 81 89 91 90 88 83 81 85 84 85 86 86 88 90 93 97 97 95 96 95 96 93 92 90 89 86 94 89 89 88 79 72 67 63 60 53 43 35 28 24 19 9 5 7 6 356 346 344 335 332 332 332 333 329 327 328 319 311 299 292 290 296 302 312 315 316 317 321 324 324 323 326 325 326
75 77 79 78 84 85 84 85 82 85 86 82 84 92 94 88 85 80 82 85 89 88 85 86 90 92 92 93 94 92 91 92 92 94 91 80 79 85 76 65 74 80 77 68 57 52 49 44 32 24 13 10 4 360 6 1 354 346 338 336 337 336 336 338 334 331 330 327 311 302 296 303 308 310 317 324 323 325 326 324 326 330 333 332 328